Location: Unspecified
(34.1750°S, 150.8048°E)
Time: 04:17:19
(UTC+10:00)

BlueWalker 3 - Visible Passes

Search period start: 22 September 2023 00:00
Search period end: 02 October 2023 01:00
Orbit: 492 x 508 km, 53.2° (Epoch: 21 September)

Date Brightness Start Highest point End Pass type
(mag) Time Alt. Az. Time Alt. Az. Time Alt. Az.
22 Sep 4.9 20:26:48 10° SSW 20:27:24 14° SSW 20:27:24 14° SSW visible
23 Sep 4.1 20:05:20 10° SSW 20:06:57 22° SSW 20:06:57 22° SSW visible
24 Sep 3.1 19:43:50 10° SSW 19:46:34 35° S 19:46:34 35° S visible
25 Sep 2.4 19:22:19 10° SSW 19:26:03 43° SE 19:26:14 43° SE visible
26 Sep 2.4 19:00:48 10° SSW 19:04:33 44° SE 19:06:00 29° E visible
26 Sep 5.1 20:40:08 10° W 20:40:39 12° W 20:40:39 12° W visible
27 Sep 2.4 18:39:16 10° SSW 18:43:01 44° SE 18:45:51 16° ENE visible
27 Sep 4.5 20:18:37 10° W 20:20:30 16° WNW 20:20:30 16° WNW visible
28 Sep 2.4 18:17:43 10° SSW 18:21:29 44° SE 18:25:11 10° ENE visible
28 Sep 4.3 19:57:06 10° W 19:59:37 17° NW 20:00:28 16° NW visible
29 Sep 4.5 19:35:33 10° W 19:38:03 17° NW 19:40:32 10° NNW visible
30 Sep 4.6 19:13:59 10° W 19:16:29 16° NW 19:18:56 10° NNW visible
01 Oct 4.7 19:52:25 10° W 19:54:53 16° NW 19:57:20 10° NNW visible
